Oxnard, CA

4:33 AM PDT on May 30, 2017 (GMT -0700)
Oxnard

Weather History for KOXR - February, 2013

Change the Weather History Date:

Sunday, February 24, 2013

  Actual Average Record
Temperature  
Mean Temperature 55 °F -  
Max Temperature 68 °F 66 °F 83 °F (1954)
Min Temperature 42 °F 47 °F 35 °F (1953)
Degree Days  
Heating Degree Days 10    
Growing Degree Days 5 (Base 50)    
Moisture  
Dew Point 24 °F    
Average Humidity 37    
Maximum Humidity 76    
Minimum Humidity 10    
Precipitation  
Precipitation 0.00 in - - ()
Sea Level Pressure  
Sea Level Pressure 30.12 in    
Wind  
Wind Speed 9 mph (NE)    
Max Wind Speed 25 mph    
Max Gust Speed 32 mph    
Visibility 10 miles    
Events      
Averages and records for this station are not official NWS values.
T = Trace of Precipitation, MM = Missing Value Source: NWS Daily Summary

Daily Weather History Graph

Daily Weather History Graph

Search for Another Location

Airport or City:

Trip Planner

Search our weather history database for the weather conditions in past years. The results will help you decide how hot, cold, wet, or windy it might be!

Date:

Astronomy

Feb. 24, 2013 Rise Set
Actual Time 6:31 AM PST 5:49 PM PST
Civil Twilight 6:06 AM PST 6:14 PM PST
Nautical Twilight 5:36 AM PST 6:43 PM PST
Astronomical Twilight 5:07 AM PST 7:12 PM PST
Moon 5:04 PM PST (2/24) 5:30 AM PST (2/24)
Length of Visible Light 12h 08m
Length of Day
11h 17m
Waxing Gibbous, 99% of the Moon is Illuminated
Feb 24
Waxing Gibbous
Feb 25
Full
Mar 4
Last Quarter
Mar 11
New
Mar 19
First Quarter

Hourly Weather History & Observations

Time (PST) Temp. Windchill Dew Point Humidity Pressure Visibility Wind Dir Wind Speed Gust Speed Precip Events Conditions
12:51 AM 50.0 °F - 34.0 °F 54% 30.03 in 10.0 mi Calm Calm - N/A   Clear
1:51 AM 43.0 °F - 36.0 °F 76% 30.04 in 10.0 mi Calm Calm - N/A   Clear
2:51 AM 43.0 °F 40.3 °F 34.0 °F 71% 30.04 in 10.0 mi NE 4.6 mph - N/A   Clear
3:51 AM 42.1 °F 40.2 °F 33.1 °F 70% 30.04 in 10.0 mi NNE 3.5 mph - N/A   Clear
4:51 AM 52.0 °F - 25.0 °F 35% 30.05 in 10.0 mi East 12.7 mph - N/A   Clear
5:51 AM 51.1 °F - 21.0 °F 31% 30.07 in 10.0 mi East 10.4 mph - N/A   Clear
6:51 AM 48.0 °F - 21.9 °F 36% 30.11 in 10.0 mi North 3.5 mph - N/A   Clear
7:51 AM 54.0 °F - 15.1 °F 22% 30.14 in 10.0 mi ENE 11.5 mph - N/A   Clear
8:51 AM 57.9 °F - 12.0 °F 16% 30.15 in 10.0 mi East 18.4 mph 21.9 mph N/A   Clear
9:51 AM 60.1 °F - 10.9 °F 14% 30.16 in 10.0 mi ENE 16.1 mph 27.6 mph N/A   Clear
10:51 AM 63.0 °F - 9.0 °F 12% 30.14 in 10.0 mi ENE 23.0 mph 28.8 mph N/A   Clear
11:51 AM 64.9 °F - 8.1 °F 11% 30.13 in 10.0 mi ENE 20.7 mph 29.9 mph N/A   Clear
12:51 PM 66.9 °F - 9.0 °F 10% 30.09 in 10.0 mi ENE 25.3 mph 32.2 mph N/A   Clear
1:51 PM 66.9 °F - 9.0 °F 10% 30.08 in 10.0 mi East 24.2 mph 28.8 mph N/A   Clear
2:51 PM 68.0 °F - 9.0 °F 10% 30.09 in 10.0 mi East 15.0 mph 25.3 mph N/A   Clear
3:51 PM 62.1 °F - 23.0 °F 22% 30.10 in 10.0 mi WNW 15.0 mph 27.6 mph N/A   Clear
4:51 PM 59.0 °F - 33.1 °F 38% 30.10 in 10.0 mi WNW 11.5 mph 18.4 mph N/A   Clear
5:51 PM 55.0 °F - 37.9 °F 53% 30.12 in 10.0 mi WNW 11.5 mph - N/A   Clear
6:51 PM 54.0 °F - 39.0 °F 57% 30.14 in 10.0 mi WNW 13.8 mph - N/A   Clear
7:51 PM 53.1 °F - 39.9 °F 61% 30.16 in 10.0 mi WNW 13.8 mph - N/A   Clear
8:51 PM 53.1 °F - 32.0 °F 45% 30.18 in 10.0 mi NNW 5.8 mph - N/A   Clear
9:51 PM 48.9 °F - 30.9 °F 50% 30.20 in 10.0 mi NE 4.6 mph - N/A   Clear
10:51 PM 46.9 °F - 28.0 °F 48% 30.20 in 10.0 mi NNW 9.2 mph - N/A   Clear
11:51 PM 48.9 °F - 24.1 °F 38% 30.21 in 10.0 mi SSE 3.5 mph - N/A   Clear